Flag for Cuba Weather past 2 weeks in Santiago de Cuba, Cuba

Now
88 °F

Passing clouds.


Feels Like: 94 °F
Forecast: 73 / 90 °F
Wind: 9 mph from South

Location: Santiago De Cuba - Oriente

Current Time: Jul 30, 2014 at 3:54:24 PM

Latest Report: Jul 30, 2014 at 2:51 PM


Visibility: 6 mi

Pressure: 29.98 "Hg

Humidity: 59%

Dew point: 72 °F

Location of Santiago de CubaLocation

Historic Weather in Santiago de Cuba — Graph

°F

Santiago de Cuba temperature yesterday

Maximum temperature yesterday: 88 °F (at 11:51 AM)
Minimum temperature yesterday: 75 °F (at 6:50 AM)
Average temperature yesterday: 83 °F

Past Weeks' High & Low Weather Summary

 TemperatureHumidityPressure
High93 °F (Jul 24, 11:53 AM)89% (Jul 16, 3:51 AM)30.09 "Hg (Jul 16, 3:51 AM)
Low75 °F (Jul 16, 6:51 AM)41% (Jul 24, 10:52 AM)29.95 "Hg (Jul 17, 3:52 AM)
Average82 °F72%30.03 "Hg
* Reported Jul 15 1:51 PM — Jul 30 1:52 PM, Santiago de Cuba, Weather by CustomWeather, © 2014

Note: Actual official high and low records may vary slightly from our data, if they occured in-between our weather recording intervals... More about our weather records

Advertising

Santiago de Cuba weather history for previous 24 hours

 ConditionsComfort  
Time TempWeatherWind HumidityBarometerVisibility
1:52 PM
Jul 30
88 °FPassing clouds.10 mph59%29.98 "Hg6 mi
12:52 PM90 °FPassing clouds.9 mph55%30.01 "Hg6 mi
11:51 AM88 °FPassing clouds.7 mph55%30.01 "Hg6 mi
10:51 AM84 °FPassing clouds.8 mph58%30.01 "Hg6 mi
9:52 AM86 °FPassing clouds.7 mph59%30.01 "Hg6 mi
8:50 AM84 °FPassing clouds.3 mph66%29.98 "Hg6 mi
7:52 AM79 °FPassing clouds.2 mph79%29.98 "Hg5 mi
6:52 AM75 °FPassing clouds.6 mph83%29.98 "Hg6 mi
5:51 AM77 °FPassing clouds.5 mph83%29.98 "Hg6 mi
4:51 AM77 °FPassing clouds.5 mph83%29.98 "Hg5 mi
3:51 AM79 °FPassing clouds.5 mph79%30.01 "Hg5 mi
2:51 AM77 °FPassing clouds.5 mph83%30.01 "Hg5 mi
1:53 AM79 °FPassing clouds.3 mph79%30.04 "Hg5 mi
12:53 AM79 °FPassing clouds.3 mph79%30.04 "Hg5 mi
11:50 PM
Jul 29
79 °FPassing clouds.6 mph79%30.04 "Hg5 mi
10:54 PM81 °FPassing clouds.6 mph79%30.04 "Hg5 mi
9:53 PM82 °FPassing clouds.2 mph74%30.01 "Hg5 mi
8:53 PM84 °FPassing clouds.3 mph74%30.01 "Hg5 mi
7:51 PM84 °FPassing clouds.6 mph70%29.98 "Hg5 mi
6:52 PM86 °FScattered clouds.7 mph66%29.98 "Hg5 mi
5:51 PM86 °FPassing clouds.9 mph59%29.98 "Hg6 mi
4:51 PM88 °FPassing clouds.8 mph55%29.98 "Hg6 mi
3:50 PM88 °FScattered clouds.8 mph59%29.98 "Hg6 mi
Weather by CustomWeather, © 2014

See weather overviewHow to use our weather pages